Location: Eymir
(36.7333°N, 29.7833°E)
Time: 18:42:18
(UTC+00:00)

Cosmos 1500 Rocket - Pass Details

Date: 14 January 2026
Orbit: 597 x 623 km, 82.5° (Epoch: 17 February)

Event Time Altitude Azimuth Distance (km) Brightness Sun altitude
Rises 04:17:44 0° 210° (SSW) 2,841 6.8 -11.0°
Reaches altitude 10° 04:20:08 10° 221° (SW) 1,947 5.9 -10.6°
Maximum altitude 04:23:55 29° 283° (WNW) 1,113 4.3 -9.9°
Drops below altitude 10° 04:27:45 10° 344° (NNW) 1,974 5.8 -9.1°
Sets 04:30:13 0° 356° (N) 2,888 6.7 -8.7°
